Benson, MN

1:52 PM CDT on May 28, 2017 (GMT -0500)
Benson Municipal

Weather History for KBBB - October, 2012

Change the Weather History Date:

Thursday, October 11, 2012

  Actual Average Record
Temperature  
Mean Temperature 34 °F -  
Max Temperature 48 °F 61 °F 91 °F (2015)
Min Temperature 21 °F 39 °F 21 °F (2012)
Degree Days  
Heating Degree Days 30    
Moisture  
Dew Point 26 °F    
Average Humidity 61    
Maximum Humidity 93    
Minimum Humidity 32    
Precipitation  
Precipitation 0.00 in - - ()
Sea Level Pressure  
Sea Level Pressure 30.14 in    
Wind  
Wind Speed 7 mph (North)    
Max Wind Speed 16 mph    
Max Gust Speed 24 mph    
Visibility 10 miles    
Events      
Averages and records for this station are not official NWS values.
T = Trace of Precipitation, MM = Missing Value Source: NWS Daily Summary

Daily Weather History Graph

Daily Weather History Graph

Search for Another Location

Airport or City:

Trip Planner

Search our weather history database for the weather conditions in past years. The results will help you decide how hot, cold, wet, or windy it might be!

Date:

Astronomy

Oct. 11, 2012 Rise Set
Actual Time 7:34 AM CDT 6:43 PM CDT
Civil Twilight 7:04 AM CDT 7:13 PM CDT
Nautical Twilight 6:30 AM CDT 7:47 PM CDT
Astronomical Twilight 5:55 AM CDT 8:21 PM CDT
Moon 3:02 AM CDT (10/11) 4:29 PM CDT (10/11)
Length of Visible Light 12h 08m
Length of Day
11h 09m
Waning Crescent, 18% of the Moon is Illuminated
Oct 11
Waning Crescent
Oct 15
New
Oct 21
First Quarter
Oct 29
Full
Nov 6
Last Quarter

Hourly Weather History & Observations

Time (CDT) Temp. Windchill Dew Point Humidity Pressure Visibility Wind Dir Wind Speed Gust Speed Precip Events Conditions
12:13 AM 48.2 °F - 28.4 °F 46% 29.80 in 10.0 mi Calm Calm - N/A   Mostly Cloudy
12:32 AM 46.4 °F - 28.4 °F 50% 29.79 in 10.0 mi Calm Calm - N/A   Scattered Clouds
12:53 AM 44.6 °F 42.2 °F 28.4 °F 53% 29.81 in 10.0 mi North 4.6 mph - N/A   Scattered Clouds
1:13 AM 44.6 °F - 28.4 °F 53% 29.82 in 10.0 mi Calm Calm - N/A   Scattered Clouds
1:32 AM 44.6 °F - 28.4 °F 53% 29.82 in 10.0 mi Calm Calm - N/A   Scattered Clouds
2:13 AM 44.6 °F 40.2 °F 30.2 °F 57% 29.85 in 10.0 mi NNE 8.1 mph - N/A   Scattered Clouds
2:33 AM 44.6 °F 39.7 °F 30.2 °F 57% 29.88 in 10.0 mi NNE 9.2 mph - N/A   Mostly Cloudy
2:53 AM 44.6 °F 40.2 °F 30.2 °F 57% 29.88 in 10.0 mi NE 8.1 mph - N/A   Mostly Cloudy
3:12 AM 42.8 °F 37.5 °F 32.0 °F 66% 29.91 in 10.0 mi NNE 9.2 mph - N/A   Mostly Cloudy
3:33 AM 42.8 °F 37.0 °F 33.8 °F 70% 29.92 in 10.0 mi NE 10.4 mph 17.3 mph N/A   Mostly Cloudy
3:53 AM 41.0 °F 34.3 °F 35.6 °F 81% 29.94 in 10.0 mi NNE 11.5 mph 20.7 mph N/A   Light Drizzle
4:01 AM 39.2 °F 34.2 °F 35.6 °F 87% 29.95 in 10.0 mi NNE 6.9 mph 16.1 mph N/A   Light Drizzle
4:21 AM 39.2 °F 33.0 °F 33.8 °F 81% 29.96 in 10.0 mi North 9.2 mph - N/A   Mostly Cloudy
4:41 AM 39.2 °F 33.0 °F 33.8 °F 81% 29.97 in 10.0 mi North 9.2 mph - N/A   Overcast
5:01 AM 39.2 °F 33.6 °F 33.8 °F 81% 29.98 in 10.0 mi North 8.1 mph - N/A   Scattered Clouds
5:21 AM 39.2 °F 32.0 °F 33.8 °F 81% 30.01 in 10.0 mi North 11.5 mph 16.1 mph N/A   Scattered Clouds
5:41 AM 39.2 °F 32.0 °F 33.8 °F 81% 30.02 in 10.0 mi NNE 11.5 mph 17.3 mph N/A   Scattered Clouds
6:01 AM 39.2 °F 33.6 °F 33.8 °F 81% 30.03 in 10.0 mi NNE 8.1 mph - N/A   Scattered Clouds
6:21 AM 39.2 °F 33.0 °F 33.8 °F 81% 30.04 in 10.0 mi North 9.2 mph - N/A   Clear
6:41 AM 39.2 °F 32.5 °F 33.8 °F 81% 30.05 in 10.0 mi North 10.4 mph - N/A   Clear
7:21 AM 37.4 °F 32.1 °F 33.8 °F 87% 30.08 in 10.0 mi North 6.9 mph - N/A   Clear
7:41 AM 37.4 °F 32.1 °F 33.8 °F 87% 30.10 in 10.0 mi North 6.9 mph - N/A   Clear
8:01 AM 35.6 °F 30.7 °F 33.8 °F 93% 30.11 in 10.0 mi North 5.8 mph - N/A   Clear
8:21 AM 35.6 °F 30.7 °F 32.0 °F 87% 30.13 in 10.0 mi North 5.8 mph - N/A   Clear
8:41 AM 37.4 °F 32.1 °F 33.8 °F 87% 30.14 in 10.0 mi North 6.9 mph - N/A   Clear
9:01 AM 39.2 °F 33.0 °F 33.8 °F 81% 30.15 in 10.0 mi North 9.2 mph - N/A   Clear
10:41 AM 42.8 °F 35.4 °F 30.2 °F 61% 30.20 in 10.0 mi NNE 15.0 mph 19.6 mph N/A   Clear
1:01 PM 46.4 °F 39.8 °F 21.2 °F 37% 30.24 in 10.0 mi NNE 16.1 mph 20.7 mph N/A   Clear
1:21 PM 46.4 °F 40.4 °F 21.2 °F 37% 30.24 in 10.0 mi North 13.8 mph 20.7 mph N/A   Clear
1:41 PM 46.4 °F 39.8 °F 23.0 °F 40% 30.25 in 10.0 mi North 16.1 mph 19.6 mph N/A   Clear
2:01 PM 44.6 °F 38.4 °F 24.8 °F 46% 30.25 in 10.0 mi North 12.7 mph 18.4 mph N/A   Clear
2:21 PM 46.4 °F 40.1 °F 23.0 °F 40% 30.25 in 10.0 mi North 15.0 mph 20.7 mph N/A   Clear
3:01 PM 48.2 °F - 19.4 °F 32% 30.26 in 10.0 mi North 16.1 mph 24.2 mph N/A   Clear
3:41 PM 48.2 °F - 19.4 °F 32% 30.27 in 10.0 mi North 16.1 mph 19.6 mph N/A   Clear
4:01 PM 46.4 °F 40.1 °F 19.4 °F 34% 30.27 in 10.0 mi North 15.0 mph 21.9 mph N/A   Clear
4:21 PM 48.2 °F - 19.4 °F 32% 30.27 in 10.0 mi North 13.8 mph 21.9 mph N/A   Clear
4:41 PM 46.4 °F 40.1 °F 19.4 °F 34% 30.28 in 10.0 mi North 15.0 mph - N/A   Clear
5:21 PM 44.6 °F 38.1 °F 19.4 °F 37% 30.29 in 10.0 mi North 13.8 mph 18.4 mph N/A   Clear
5:41 PM 44.6 °F 38.1 °F 21.2 °F 39% 30.30 in 10.0 mi North 13.8 mph - N/A   Clear
6:01 PM 41.0 °F 35.2 °F 21.2 °F 45% 30.31 in 10.0 mi North 9.2 mph - N/A   Clear
6:21 PM 39.2 °F 35.0 °F 21.2 °F 49% 30.31 in 10.0 mi North 5.8 mph - N/A   Clear
6:41 PM 39.2 °F 34.2 °F 19.4 °F 45% 30.31 in 10.0 mi North 6.9 mph - N/A   Clear
7:01 PM 35.6 °F 31.7 °F 19.4 °F 52% 30.32 in 10.0 mi North 4.6 mph - N/A   Clear
7:21 PM 35.6 °F 30.7 °F 19.4 °F 52% 30.32 in 10.0 mi North 5.8 mph - N/A   Clear
8:01 PM 33.8 °F 29.6 °F 19.4 °F 56% 30.33 in 10.0 mi North 4.6 mph - N/A   Clear
8:21 PM 33.8 °F 30.8 °F 19.4 °F 56% 30.35 in 10.0 mi NNE 3.5 mph - N/A   Clear
8:41 PM 33.8 °F - 19.4 °F 56% 30.35 in 10.0 mi North 2.3 mph - N/A   Clear
9:01 PM 33.8 °F 30.8 °F 19.4 °F 56% 30.36 in 10.0 mi North 3.5 mph - N/A   Clear
10:01 PM 24.8 °F - 17.6 °F 74% 30.37 in 10.0 mi NNW 2.3 mph - N/A   Clear
10:21 PM 24.8 °F - 17.6 °F 74% 30.38 in 10.0 mi Calm Calm - N/A   Clear
11:01 PM 23.0 °F - 15.8 °F 74% 30.40 in 10.0 mi Calm Calm - N/A   Clear
11:21 PM 21.2 °F - 15.8 °F 80% 30.40 in 7.0 mi WSW 2.3 mph - N/A   Clear
11:41 PM 21.2 °F - 17.6 °F 86% 30.41 in 10.0 mi Calm Calm - N/A   Clear